Regional Weather Roundup
Issued by NWS

Home | Current Version | Previous Version | Text Only | Print | Product List | Glossary On
Versions: 1 2 3 4 5 6 7 8 9 10 11 12 13 14 15 16 17 18 19 20 21 22 23 24 25 26 27 28 29 30 31 32 33 34 35 36 37 38 39 40 41 42 43 44 45 46 47 48 49 50
000
ASUS43 KMKX 280921
RWRWI

WISCONSIN REGIONAL WEATHER ROUNDUP
NATIONAL WEATHER SERVICE MILWAUKEE/SULLIVAN WI
400 AM CDT SUN AUG 28 2016

NOTE: "FAIR" INDICATES FEW OR NO CLOUDS BELOW 12,000 FEET WITH NO
SIGNIFICANT WEATHER AND/OR OBSTRUCTIONS TO VISIBILITY.

WIZ001-002-006>008-014>016-023>028-281000-
NORTHWEST WISCONSIN

CITY           SKY/WX    TMP DP  RH WIND       PRES   REMARKS
SUPERIOR ARPT  FOG       57  57 100 CALM      30.09S VSB 1/4
ASHLAND        CLOUDY    60  60 100 CALM      30.11R FOG
HAYWARD        CLOUDY    62  60  93 S5        30.12S
SIREN          CLOUDY    61  60  97 CALM      30.12S FOG
CUMBERLAND     FOG       59  57  94 CALM      30.13S VSB 1/4
RICE LAKE      FOG       60  59  96 CALM      30.14S VSB<1/4
CHETEK         NOT AVBL
LADYSMITH      MOCLDY    62  61  96 CALM      30.15S
EAU CLAIRE     CLOUDY    62  62 100 NE3       30.12R FOG
MENOMONIE      FOG       62  61  99 NE3       30.12S VSB 1/4
NEW RICHMOND   FOG       61  61 100 E3        30.12S VSB 1/2
OSCEOLA        FOG       61  61 100 CALM      30.14S VSB 1/4
$$

WIZ003>005-009-010-017-018-281000-
NORTH CENTRAL WISCONSIN

CITY           SKY/WX    TMP DP  RH WIND       PRES   REMARKS
MANITOWISH WTR NOT AVBL
ARBOR VITAE    CLOUDY    62  60  95 CALM      30.13R
WOODRUFF       CLOUDY    62  60  95 CALM      30.13R
RHINELANDER    CLOUDY    63  63 100 W6        30.13R
EAGLE RIVER    PTCLDY    60  60 100 W5        30.12R
LAND O LAKES   CLOUDY    62  61  97 W5        30.13R
PHILLIPS       CLOUDY    61  61 100 CALM      30.13S
TOMAHAWK       MOCLDY    61  60  96 CALM      30.14R
MEDFORD        CLOUDY    61  61 100 W5        30.13S FOG
MERRILL        PTCLDY    61  61 100 W5        30.14S
$$

WIZ029-030-035-036-043>047-281000-
CENTRAL WISCONSIN

CITY           SKY/WX    TMP DP  RH WIND       PRES   REMARKS
WAUSAU         CLOUDY    63  61  93 W5        30.13R
MOSINEE        CLEAR     61  61 100 W5        30.15R
MARSHFIELD     FOG       62  60  93 CALM      30.13S VSB 1/4
STEVENS POINT  CLOUDY    63  63  99 CALM      30.14R
WAUPACA        CLOUDY    64  64  97 CALM      30.13S FOG
WAUTOMA        CLOUDY    64  64 100 W3        30.14R
WISC RAPIDS    CLOUDY    65  65 100 CALM      30.15R FOG
CAMP DOUGLAS   CLOUDY    66  65  98 NW3       30.13R
$$

WIZ011>013-019>022-031-037>040-048>050-281000-
NORTHEAST WISCONSIN

CITY           SKY/WX    TMP DP  RH WIND       PRES   REMARKS
ANTIGO         MOCLDY    62  61  97 W3        30.14R
SHAWANO        CLOUDY    65  63  94 CALM      30.13R
OCONTO         NOT AVBL
STURGEON BAY   CLOUDY    64  63  96 W8        30.13R
GREEN BAY      CLOUDY    63  63 100 MISG      30.13R
MANITOWOC      FOG       64  63  94 W6        30.13R VSB 1/4
APPLETON       CLOUDY    63  63 100 W5        30.12R FOG
CLINTONVILLE   CLOUDY    63  63 100 CALM      30.13R FOG
OSHKOSH        FOG       63  62  97 NW3       30.13R VSB 1/4
$$

WIZ032>034-041-042-053>061-281000-
SOUTHWEST WISCONSIN

CITY           SKY/WX    TMP DP  RH WIND       PRES   REMARKS
LA CROSSE      FOG       67  67 100 S7        30.11R VSB 1
SPARTA         FOG       64  64 100 CALM      30.14R VSB 3/4
VIROQUA        CLOUDY    64  64 100 CALM      30.14S VSB 1/4
BOSCOBEL       FOG       64  63  96 CALM      30.13S VSB 1/4
PRAIRIE DU CHI FOG       63  61  96 CALM      30.12S VSB 1/4
PLATTEVILLE    CLOUDY    62  62 100 CALM      30.14S VSB 1/4
$$

WIZ056-057-062-063-064-067-068-281000-
SOUTH CENTRAL WISCONSIN

CITY           SKY/WX    TMP DP  RH WIND       PRES   REMARKS
REEDSBURG      NOT AVBL
BARABOO/DELLS  FOG       60  59  96 CALM      30.13S VSB<1/4
LONE ROCK      FOG       63  63 100 CALM      30.13F VSB 1/4
MINERAL POINT  FOG       63  63 100 CALM      30.14S VSB<1/4
MADISON        FOG       64  64 100 S3        30.13R VSB<1/4
MIDDLETON      CLOUDY    62  62 100 CALM      30.14R VSB 1
WATERTOWN      FOG       63  63 100 CALM      30.14R VSB 1/4
MONROE         MOCLDY    66  64  94 SE3       30.14S
JANESVILLE     PTCLDY    64  64 100 CALM      30.13S FOG
$$

WIZ051-052-058>065-066-070>072-281000-
SOUTHEAST WISCONSIN

CITY           SKY/WX    TMP DP  RH WIND       PRES   REMARKS
MILWAUKEE      FOG       66  64  93 CALM      30.13S VSB 1/4
WAUKESHA       FOG       63  61  94 CALM      30.15S VSB 3/4
MILWAUKEE/TIMM CLEAR     64  61  88 CALM      30.14S FOG
RACINE         CLOUDY    69  67  93 NW5       30.14S FOG
BURLINGTON     FOG       63  62  99 CALM      30.14S VSB 3/4
KENOSHA        PTCLDY    69  67  93 N3        30.13S
FOND DU LAC    FOG       64  63  96 SW5       30.13R VSB 1/4
SHEBOYGAN      FOG       62  61  96 W6        30.13R VSB 1/4
WEST BEND      FOG       63  63 100 CALM      30.14R VSB 1/4
JUNEAU         FOG       64  64 100 S3        30.15R VSB<1/4
$$

LSZ147-162-281000-
LAKE SUPERIOR

STATION/POSITION TIME  TEMP    WIND        PRES    WAVE
                       AIR SEA DIR/SP/G            HT/PER
                 (UTC) (F)     (DEG/KT/KT) (MB)    (FT/S)
W MID LAKE BUOY  0850   63 67  270/  8/ 10 1018.4R   1/ 4
DEVILS ISLAND    0900   62     220/  6/  8 1019.4R
PORT WING        0800   58     170/  2/  3 1019.3R
SAXON HARBOR     0840   63     190/  4/  6 1019.3R
$$

LMZ867-665-643>646-281000-
LAKE MICHIGAN

STATION/POSITION TIME  TEMP    WIND        PRES    WAVE
                       AIR SEA DIR/SP/G            HT/PER
                 (UTC) (F)     (DEG/KT/KT) (MB)    (FT/S)
CHAMBERS ISLAND  0800   65     210/  4/  9 1018.6S
S GREEN BAY BUOY 0800   65 71  270/ 12/ 14 1019.0R
N MID LAKE BUOY  0750   67 70  270/ 16/ 17 1017.8R   1/ 4
NORTHPORT PIER   0800   66     290/  6/  9 1018.6R
SISTER BAY       0807   67     300/ 12/ 13   N/A
KEWAUNEE LAKESHO 0800   63     280/  3/  6 1018.7R
SHEBOYGAN LAKESH 0900   64     250/  5/  6 1019.7R
PORT WASHINGTON  0840   62      CALM  /  2 1020.7S
ATWATER BUOY     0900   63     200/  2/  4   N/A
MILWAUKEE LAKESH 0810   63     220/  3/  3   N/A
S MID LAKE BUOY  0750   72 75  350/ 10/ 12 1019.0R   1
KENOSHA   LAKESH 0900   66      CALM  /  4 1020.3R
$$

TC  - TEMPERATURE IN CELSIUS
VSB - VISIBILITY IN STATUTE MILES
WCI - WIND CHILL INDEX
HX  - HEAT INDEX





USA.gov is the U.S. government's official web portal to all federal, state and local government web resources and services.